[[{"header":{"parameterUnit":"m.s-1","parameterCategory":1,"la1":30.2992,"la2":30.254,"lo1":-89.0895,"lo2":-89.0443,"dy":0.0025,"dx":0.0025,"nx":19,"ny":19,"refTime":"2026-04-11T09:00:00:Z","depth":0,"parameterNumber":2,"parameterNumberName":"U-component_of_WINDS"},"data":[0,0,0,-1.8698,-1.8699,-1.8748,-1.8748,-1.8825,-1.8825,0,0,0,0,0,0,0,0,0,0,0,-1.8691,-1.8691,-1.8698,-1.8699,-1.8748,-1.8748,-1.8824,-1.8825,0,0,0,0,0,0,0,0,0,0,0,-1.869,-1.8691,-1.8692,-1.8699,-1.8748,-1.8748,-1.8824,-1.8783,0,0,0,0,0,0,0,0,0,0,-1.8733,-1.8733,-1.8691,-1.8692,-1.87,-1.8748,-1.8748,-1.878,-1.8785,-1.8808,0,-1.8829,0,-1.8829,-1.8831,-1.8832,0,0,0,-1.8694,-1.8729,-1.8736,-1.8692,-1.87,-1.8748,-1.8725,-1.8783,-1.8788,-1.8814,-1.883,-1.8833,-1.883,-1.8832,-1.8832,-1.898,-1.8981,0,0,-1.8691,-1.8703,-1.8732,-1.8739,-1.8732,-1.8723,-1.8726,-1.8786,-1.8804,-1.883,-1.8834,-1.8831,-1.8832,-1.8833,-1.8979,-1.898,0,0,0,-1.8687,-1.8702,-1.8707,-1.8737,-1.8745,-1.8725,-1.8728,-1.8802,-1.8802,-1.8835,-1.8832,-1.8833,-1.8834,-1.8978,-1.898,-1.9039,0,0,0,-1.8685,-1.8699,-1.8706,-1.8714,-1.8744,-1.8774,-1.8743,-1.8798,-1.8804,-1.8832,-1.8833,-1.8835,-1.8977,-1.8979,-1.9035,-1.9065,0,0,0,-1.8685,-1.8699,-1.8709,-1.8714,-1.8736,-1.8772,-1.8776,-1.8799,-1.8803,-1.8832,-1.8835,-1.8976,-1.8979,-1.9031,-1.9059,-1.9108,0,0,0,-1.8688,-1.876,-1.871,-1.8789,-1.8736,-1.8808,-1.8775,-1.8829,-1.886,-1.8833,-1.8977,-1.8979,-1.903,-1.9055,-1.9105,-1.9152,-1.9173,0,0,-1.8786,-1.8772,-1.8818,-1.8774,-1.8859,-1.88,-1.8893,-1.891,-1.8902,-1.8955,-1.8958,-1.9036,-1.9059,-1.9107,-1.9284,-1.9301,0,0,0,-1.8853,-1.8886,-1.8905,-1.8936,-1.8951,-1.8967,-1.8968,-1.8975,-1.9019,-1.8931,-1.9066,-1.9079,-1.9107,-1.913,-1.9144,-1.9168,-1.899,-1.899,-1.8989,-1.9008,-1.8994,-1.9069,-1.906,-1.9091,-1.9092,-1.9116,-1.9125,-1.9101,-1.9133,-1.9149,-1.9258,-1.9285,-1.9295,-1.9321,-1.9172,-1.9173,-1.9173,-1.9173,-1.915,-1.9195,-1.9162,-1.9223,-1.9208,-1.9259,-1.9264,-1.9246,-1.9292,-1.9245,-1.9269,-1.9219,-1.9314,-1.9335,-1.9177,-1.9177,-1.9176,-1.9176,-1.9175,-1.9251,-1.9271,-1.9277,-1.9321,-1.9357,-1.9346,-1.9392,-1.9376,-1.9362,-1.9385,-1.9401,-1.94,-1.9399,-1.9394,-1.9394,-1.9395,-1.9395,-1.9395,-1.9396,-1.9354,-1.936,-1.94,-1.9423,-1.9441,-1.9464,-1.9467,-1.9485,-1.9501,-1.9485,-1.9486,-1.946,-1.9325,-1.9293,-1.9401,-1.94,-1.94,-1.9399,-1.9399,-1.9505,-1.9469,-1.9532,-1.955,-1.9576,-1.9614,-1.9593,-1.9631,-1.9643,-1.9667,-1.9636,-1.9539,-1.9524,-1.9513,-1.9486,-1.9638,-1.9638,-1.9638,-1.9638,-1.9591,-1.9582,-1.9644,-1.9675,-1.9703,-1.9691,-1.9764,-1.9768,-1.9766,-1.9773,-1.9749,-1.9711,-1.97,-1.9692,-1.9677,-1.9651,-1.9842,-1.9842,-1.9842,-1.9684,-1.9677,-1.9742,-1.9739,-1.9759,-1.9777,-1.9846,-1.9883,-1.9873,-1.985,-1.9779,-1.977,-1.9709,-1.969,-1.9666,-1.9642,-1.9595,0,0]},{"header":{"parameterUnit":"m.s-1","parameterCategory":1,"la1":30.2992,"la2":30.254,"lo1":-89.0895,"lo2":-89.0443,"dy":0.0025,"dx":0.0025,"nx":19,"ny":19,"refTime":"2026-04-11T09:00:00:Z","depth":0,"parameterNumber":3,"parameterNumberName":"V-component_of_WINDS"},"data":[0,0,0,0.3643,0.3643,0.3652,0.3652,0.3673,0.3673,0,0,0,0,0,0,0,0,0,0,0,0.3645,0.3645,0.3643,0.3643,0.3652,0.3652,0.3673,0.3673,0,0,0,0,0,0,0,0,0,0,0,0.3644,0.3645,0.3645,0.3643,0.3652,0.3652,0.3673,0.3663,0,0,0,0,0,0,0,0,0,0,0.3652,0.3658,0.3645,0.3645,0.3643,0.3652,0.3652,0.3662,0.3664,0.3672,0,0.3681,0,0.3678,0.3675,0.3675,0,0,0,0.364,0.3657,0.3656,0.3645,0.3643,0.3652,0.3647,0.3663,0.3664,0.3674,0.3681,0.3682,0.3678,0.3675,0.3676,0.3739,0.3739,0,0,0.3639,0.3649,0.3655,0.3657,0.3655,0.3647,0.3648,0.3664,0.3672,0.3681,0.3682,0.3678,0.3676,0.3676,0.3738,0.3739,0,0,0,0.364,0.3649,0.3646,0.3656,0.3657,0.3647,0.3648,0.3671,0.367,0.3682,0.3678,0.3676,0.3676,0.3738,0.3738,0.3772,0,0,0,0.364,0.3649,0.3646,0.3652,0.3657,0.3664,0.3655,0.3669,0.367,0.3678,0.3676,0.3676,0.3737,0.3738,0.377,0.3786,0,0,0,0.3642,0.3649,0.3652,0.3653,0.3657,0.3664,0.3663,0.3669,0.3668,0.3675,0.3676,0.3737,0.3738,0.3768,0.3783,0.3808,0,0,0,0.3648,0.368,0.3653,0.3687,0.3657,0.3684,0.3663,0.3682,0.3692,0.3676,0.3737,0.3738,0.3767,0.3781,0.3806,0.3832,0.3843,0,0,0.3694,0.3686,0.3705,0.3681,0.3716,0.3682,0.3721,0.3721,0.3712,0.373,0.3732,0.377,0.3783,0.3808,0.3898,0.3907,0,0,0,0.3723,0.3738,0.3745,0.3755,0.3756,0.3759,0.3752,0.3752,0.3767,0.3723,0.3784,0.3792,0.3806,0.3818,0.3825,0.3838,0.3744,0.3743,0.3743,0.3802,0.3791,0.3823,0.3813,0.3824,0.3817,0.3825,0.3824,0.3808,0.3823,0.3829,0.3885,0.3899,0.3905,0.3918,0.384,0.384,0.384,0.384,0.387,0.389,0.387,0.3894,0.3882,0.3902,0.3898,0.3886,0.3905,0.3879,0.3891,0.3865,0.3915,0.3926,0.3842,0.3842,0.3842,0.3841,0.3841,0.3923,0.393,0.393,0.3946,0.3959,0.3948,0.3967,0.3955,0.3943,0.3955,0.3962,0.3961,0.3961,0.3958,0.3959,0.3959,0.3959,0.3959,0.3959,0.3978,0.3977,0.3995,0.4,0.4006,0.4013,0.4008,0.4014,0.4018,0.4008,0.4008,0.3993,0.3921,0.3905,0.3962,0.3962,0.3961,0.3961,0.3961,0.4055,0.4036,0.4064,0.407,0.4077,0.4093,0.4076,0.4091,0.4094,0.4105,0.4087,0.4035,0.4026,0.402,0.4007,0.4087,0.4087,0.4087,0.4087,0.4102,0.4096,0.4123,0.4135,0.4144,0.4133,0.4168,0.4164,0.4158,0.416,0.4146,0.4127,0.4121,0.4116,0.4108,0.4095,0.4196,0.4196,0.4196,0.415,0.4145,0.4176,0.4169,0.4174,0.4179,0.4211,0.4227,0.4216,0.42,0.4162,0.4158,0.4126,0.4116,0.4101,0.4089,0.4066,0,0]}]]